Time,TemperatureF,DewpointF,PressureIn,WindDirection,WindDirectionDegrees,WindSpeedMPH,WindSpeedGustMPH,Humidity,HourlyPrecipIn,Conditions,Clouds,dailyrainin,SoftwareType,DateUTC
2013-03-04 00:00:00,29.6,23.0,29.69,WNW,302,4.0,4.0,76,0.00,,,0.13,Wunderground v.1.15,2013-03-04 05:00:00,
2013-03-04 00:10:00,29.6,23.0,29.69,WNW,288,4.0,4.0,76,0.00,,,0.00,Wunderground v.1.15,2013-03-04 05:10:00,
2013-03-04 00:15:00,29.6,23.0,29.69,WNW,284,4.0,4.0,76,0.00,,,0.00,Wunderground v.1.15,2013-03-04 05:15:00,
2013-03-04 00:25:00,29.5,22.9,29.69,WSW,249,6.0,11.0,76,0.00,,,0.00,Wunderground v.1.15,2013-03-04 05:25:00,
2013-03-04 00:30:00,29.5,22.9,29.69,West,269,5.0,5.0,76,0.00,,,0.00,Wunderground v.1.15,2013-03-04 05:30:00,
2013-03-04 00:40:00,29.4,22.8,29.69,NNW,327,5.0,5.0,76,0.00,,,0.00,Wunderground v.1.15,2013-03-04 05:40:00,
2013-03-04 00:45:00,29.3,22.7,29.69,West,279,6.0,9.0,76,0.00,,,0.00,Wunderground v.1.15,2013-03-04 05:45:00,
2013-03-04 00:50:00,29.2,22.9,29.69,WNW,282,6.0,7.0,77,0.00,,,0.00,Wunderground v.1.15,2013-03-04 05:50:00,
2013-03-04 00:55:00,29.2,22.9,29.69,SSW,209,6.0,7.0,77,0.00,,,0.00,Wunderground v.1.15,2013-03-04 05:55:00,
2013-03-04 01:00:00,29.1,22.8,29.69,SSW,205,5.0,5.0,77,0.00,,,0.00,Wunderground v.1.15,2013-03-04 06:00:00,
2013-03-04 01:05:00,29.0,22.7,29.69,WNW,284,5.0,7.0,77,0.00,,,0.00,Wunderground v.1.15,2013-03-04 06:05:00,
2013-03-04 01:10:00,29.0,22.7,29.69,WSW,241,6.0,6.0,77,0.00,,,0.00,Wunderground v.1.15,2013-03-04 06:10:00,
2013-03-04 01:15:00,28.9,22.6,29.69,NNW,345,5.0,8.0,77,0.00,,,0.00,Wunderground v.1.15,2013-03-04 06:15:00,
2013-03-04 01:20:00,28.9,22.6,29.69,WNW,299,6.0,6.0,77,0.00,,,0.00,Wunderground v.1.15,2013-03-04 06:20:00,
2013-03-04 01:25:00,29.0,22.7,29.69,NW,311,6.0,6.0,77,0.00,,,0.00,Wunderground v.1.15,2013-03-04 06:25:00,
2013-03-04 01:30:00,28.9,22.6,29.69,WNW,290,5.0,5.0,77,0.00,,,0.00,Wunderground v.1.15,2013-03-04 06:30:00,
2013-03-04 01:40:00,28.9,22.6,29.68,SW,229,5.0,5.0,77,0.00,,,0.00,Wunderground v.1.15,2013-03-04 06:40:00,
2013-03-04 01:50:00,28.8,22.5,29.68,West,277,5.0,5.0,77,0.00,,,0.00,Wunderground v.1.15,2013-03-04 06:50:00,
2013-03-04 01:55:00,28.7,22.4,29.69,WNW,289,5.0,13.0,77,0.00,,,0.00,Wunderground v.1.15,2013-03-04 06:55:00,
2013-03-04 02:00:00,28.7,22.4,29.68,NW,314,5.0,6.0,77,0.00,,,0.00,Wunderground v.1.15,2013-03-04 07:00:00,
2013-03-04 02:05:00,28.7,22.4,29.69,NNW,327,5.0,6.0,77,0.00,,,0.00,Wunderground v.1.15,2013-03-04 07:05:00,
2013-03-04 02:10:00,28.6,22.3,29.68,West,270,6.0,10.0,77,0.00,,,0.00,Wunderground v.1.15,2013-03-04 07:10:00,
2013-03-04 02:15:00,28.5,22.2,29.68,West,273,6.0,10.0,77,0.00,,,0.00,Wunderground v.1.15,2013-03-04 07:15:00,
2013-03-04 02:20:00,28.6,22.3,29.68,NW,309,5.0,7.0,77,0.00,,,0.00,Wunderground v.1.15,2013-03-04 07:20:00,
2013-03-04 02:25:00,28.5,22.5,29.68,WNW,286,5.0,10.0,78,0.00,,,0.00,Wunderground v.1.15,2013-03-04 07:25:00,
2013-03-04 02:30:00,28.5,22.2,29.68,WNW,296,5.0,5.0,77,0.00,,,0.00,Wunderground v.1.15,2013-03-04 07:30:00,
2013-03-04 02:35:00,28.5,22.2,29.68,WNW,302,5.0,5.0,77,0.00,,,0.00,Wunderground v.1.15,2013-03-04 07:35:00,
2013-03-04 02:40:00,28.6,22.3,29.68,West,261,5.0,6.0,77,0.00,,,0.00,Wunderground v.1.15,2013-03-04 07:40:00,
2013-03-04 02:50:00,28.7,22.4,29.68,NW,324,6.0,12.0,77,0.00,,,0.00,Wunderground v.1.15,2013-03-04 07:50:00,
2013-03-04 03:00:00,28.7,22.1,29.68,WNW,296,5.0,9.0,76,0.00,,,0.00,Wunderground v.1.15,2013-03-04 08:00:00,
2013-03-04 03:10:00,28.5,21.9,29.68,WNW,303,6.0,14.0,76,0.00,,,0.00,Wunderground v.1.15,2013-03-04 08:10:00,
2013-03-04 03:20:00,28.4,21.5,29.68,NW,313,6.0,6.0,75,0.00,,,0.00,Wunderground v.1.15,2013-03-04 08:20:00,
2013-03-04 03:25:00,28.4,21.8,29.68,WSW,252,6.0,8.0,76,0.00,,,0.00,Wunderground v.1.15,2013-03-04 08:25:00,
2013-03-04 03:30:00,28.3,21.7,29.68,SW,227,5.0,5.0,76,0.00,,,0.00,Wunderground v.1.15,2013-03-04 08:30:00,
2013-03-04 03:35:00,28.4,21.8,29.68,NW,322,5.0,5.0,76,0.00,,,0.00,Wunderground v.1.15,2013-03-04 08:35:00,
2013-03-04 03:40:00,28.5,21.9,29.68,WSW,246,6.0,6.0,76,0.00,,,0.00,Wunderground v.1.15,2013-03-04 08:40:00,
2013-03-04 03:45:00,28.5,21.9,29.68,West,267,6.0,6.0,76,0.00,,,0.00,Wunderground v.1.15,2013-03-04 08:45:00,
2013-03-04 03:50:00,28.6,21.7,29.68,WNW,295,7.0,7.0,75,0.00,,,0.00,Wunderground v.1.15,2013-03-04 08:50:00,
2013-03-04 04:00:00,28.7,21.8,29.68,NW,321,6.0,6.0,75,0.00,,,0.00,Wunderground v.1.15,2013-03-04 09:00:00,
2013-03-04 04:05:00,28.7,21.8,29.68,WNW,296,6.0,6.0,75,0.00,,,0.00,Wunderground v.1.15,2013-03-04 09:05:00,
2013-03-04 04:15:00,28.8,21.6,29.68,NW,315,5.0,6.0,74,0.00,,,0.00,Wunderground v.1.15,2013-03-04 09:15:00,
2013-03-04 04:20:00,28.8,21.6,29.68,NNW,348,5.0,5.0,74,0.00,,,0.00,Wunderground v.1.15,2013-03-04 09:20:00,
2013-03-04 04:25:00,28.7,21.5,29.69,WNW,286,7.0,7.0,74,0.00,,,0.00,Wunderground v.1.15,2013-03-04 09:25:00,
2013-03-04 04:30:00,28.5,21.3,29.69,NNW,327,7.0,7.0,74,0.00,,,0.00,Wunderground v.1.15,2013-03-04 09:30:00,
2013-03-04 04:35:00,28.4,21.5,29.69,West,261,7.0,8.0,75,0.00,,,0.00,Wunderground v.1.15,2013-03-04 09:35:00,
2013-03-04 04:40:00,28.3,21.4,29.68,West,267,7.0,7.0,75,0.00,,,0.00,Wunderground v.1.15,2013-03-04 09:40:00,
2013-03-04 04:45:00,28.1,20.9,29.68,NW,326,9.0,9.0,74,0.00,,,0.00,Wunderground v.1.15,2013-03-04 09:45:00,
2013-03-04 04:50:00,28.1,21.2,29.68,SW,221,9.0,9.0,75,0.00,,,0.00,Wunderground v.1.15,2013-03-04 09:50:00,
2013-03-04 04:55:00,28.0,21.1,29.68,NNW,328,9.0,9.0,75,0.00,,,0.00,Wunderground v.1.15,2013-03-04 09:55:00,
2013-03-04 05:00:00,27.9,21.0,29.68,NNW,341,8.0,10.0,75,0.00,,,0.00,Wunderground v.1.15,2013-03-04 10:00:00,
2013-03-04 05:10:00,27.8,21.2,29.68,WNW,296,7.0,9.0,76,0.00,,,0.00,Wunderground v.1.15,2013-03-04 10:10:00,
2013-03-04 05:15:00,27.8,21.2,29.68,WNW,286,7.0,14.0,76,0.00,,,0.00,Wunderground v.1.15,2013-03-04 10:15:00,
2013-03-04 05:25:00,27.8,20.9,29.68,West,273,8.0,9.0,75,0.00,,,0.00,Wunderground v.1.15,2013-03-04 10:25:00,
2013-03-04 05:30:00,27.8,20.9,29.68,WNW,296,8.0,8.0,75,0.00,,,0.00,Wunderground v.1.15,2013-03-04 10:30:00,
2013-03-04 05:35:00,27.8,20.9,29.68,West,280,8.0,8.0,75,0.00,,,0.00,Wunderground v.1.15,2013-03-04 10:35:00,
2013-03-04 05:40:00,27.7,20.8,29.68,NW,317,8.0,10.0,75,0.00,,,0.00,Wunderground v.1.15,2013-03-04 10:40:00,
2013-03-04 05:50:00,27.5,20.6,29.68,NW,304,8.0,10.0,75,0.00,,,0.00,Wunderground v.1.15,2013-03-04 10:50:00,
2013-03-04 05:55:00,27.6,20.7,29.68,NNW,329,7.0,10.0,75,0.00,,,0.00,Wunderground v.1.15,2013-03-04 10:55:00,
2013-03-04 06:00:00,27.6,20.7,29.68,NW,323,5.0,5.0,75,0.00,,,0.00,Wunderground v.1.15,2013-03-04 11:00:00,
2013-03-04 06:05:00,27.6,20.7,29.69,West,271,4.0,5.0,75,0.00,,,0.00,Wunderground v.1.15,2013-03-04 11:05:00,
2013-03-04 06:10:00,27.6,20.7,29.68,West,263,4.0,4.0,75,0.00,,,0.00,Wunderground v.1.15,2013-03-04 11:10:00,
2013-03-04 06:15:00,27.7,20.5,29.69,SW,230,6.0,6.0,74,0.00,,,0.00,Wunderground v.1.15,2013-03-04 11:15:00,
2013-03-04 06:20:00,27.8,20.6,29.69,West,260,6.0,11.0,74,0.00,,,0.00,Wunderground v.1.15,2013-03-04 11:20:00,
2013-03-04 06:25:00,27.9,20.7,29.69,NNW,348,6.0,11.0,74,0.00,,,0.00,Wunderground v.1.15,2013-03-04 11:25:00,
2013-03-04 06:35:00,28.0,21.1,29.69,North,360,4.0,5.0,75,0.00,,,0.00,Wunderground v.1.15,2013-03-04 11:35:00,
2013-03-04 06:40:00,28.0,20.8,29.69,NW,310,5.0,5.0,74,0.00,,,0.00,Wunderground v.1.15,2013-03-04 11:40:00,
2013-03-04 06:45:00,28.0,20.8,29.68,NW,311,5.0,11.0,74,0.00,,,0.00,Wunderground v.1.15,2013-03-04 11:45:00,
2013-03-04 06:50:00,28.1,20.9,29.69,West,273,7.0,10.0,74,0.00,,,0.00,Wunderground v.1.15,2013-03-04 11:50:00,
2013-03-04 06:55:00,28.2,21.0,29.68,NW,316,7.0,12.0,74,0.00,,,0.00,Wunderground v.1.15,2013-03-04 11:55:00,
2013-03-04 07:00:00,28.2,21.0,29.68,WSW,238,6.0,6.0,74,0.00,,,0.00,Wunderground v.1.15,2013-03-04 12:00:00,
2013-03-04 07:05:00,28.3,21.1,29.68,WNW,297,5.0,6.0,74,0.00,,,0.00,Wunderground v.1.15,2013-03-04 12:05:00,
2013-03-04 07:10:00,28.3,21.1,29.69,NW,306,5.0,7.0,74,0.00,,,0.00,Wunderground v.1.15,2013-03-04 12:10:00,
2013-03-04 07:15:00,28.3,20.7,29.69,West,269,6.0,7.0,73,0.00,,,0.00,Wunderground v.1.15,2013-03-04 12:15:00,
2013-03-04 07:20:00,28.4,20.8,29.69,West,277,7.0,7.0,73,0.00,,,0.00,Wunderground v.1.15,2013-03-04 12:20:00,
2013-03-04 07:30:00,28.4,20.5,29.69,WSW,249,7.0,10.0,72,0.00,,,0.00,Wunderground v.1.15,2013-03-04 12:30:00,
2013-03-04 07:35:00,28.5,20.9,29.69,NW,308,7.0,11.0,73,0.00,,,0.00,Wunderground v.1.15,2013-03-04 12:35:00,
2013-03-04 07:40:00,28.5,20.6,29.69,WNW,284,8.0,11.0,72,0.00,,,0.00,Wunderground v.1.15,2013-03-04 12:40:00,
2013-03-04 07:45:00,28.6,20.7,29.69,West,279,8.0,11.0,72,0.00,,,0.00,Wunderground v.1.15,2013-03-04 12:45:00,
2013-03-04 07:50:00,28.7,20.8,29.69,SW,232,7.0,7.0,72,0.00,,,0.00,Wunderground v.1.15,2013-03-04 12:50:00,
2013-03-04 07:55:00,28.8,20.9,29.69,WSW,246,6.0,7.0,72,0.00,,,0.00,Wunderground v.1.15,2013-03-04 12:55:00,
2013-03-04 08:00:00,28.8,20.9,29.69,West,278,5.0,5.0,72,0.00,,,0.00,Wunderground v.1.15,2013-03-04 13:00:00,
2013-03-04 08:05:00,28.8,20.9,29.69,NW,325,5.0,5.0,72,0.00,,,0.00,Wunderground v.1.15,2013-03-04 13:05:00,
2013-03-04 08:10:00,28.8,20.9,29.69,West,260,6.0,11.0,72,0.00,,,0.00,Wunderground v.1.15,2013-03-04 13:10:00,
2013-03-04 08:15:00,28.7,21.1,29.70,WNW,294,7.0,11.0,73,0.00,,,0.00,Wunderground v.1.15,2013-03-04 13:15:00,
2013-03-04 08:20:00,28.7,21.5,29.69,WNW,302,8.0,8.0,74,0.00,,,0.00,Wunderground v.1.15,2013-03-04 13:20:00,
2013-03-04 08:25:00,28.7,21.5,29.69,WSW,246,5.0,8.0,74,0.00,,,0.00,Wunderground v.1.15,2013-03-04 13:25:00,
2013-03-04 08:30:00,28.8,21.2,29.69,WSW,238,6.0,9.0,73,0.00,,,0.00,Wunderground v.1.15,2013-03-04 13:30:00,
2013-03-04 08:35:00,28.9,21.0,29.69,West,281,8.0,9.0,72,0.00,,,0.00,Wunderground v.1.15,2013-03-04 13:35:00,
2013-03-04 08:40:00,29.2,21.0,29.69,NW,309,8.0,8.0,71,0.00,,,0.00,Wunderground v.1.15,2013-03-04 13:40:00,
2013-03-04 08:45:00,29.3,20.4,29.70,NW,311,9.0,14.0,69,0.00,,,0.00,Wunderground v.1.15,2013-03-04 13:45:00,
2013-03-04 08:50:00,29.4,20.5,29.69,NW,317,8.0,8.0,69,0.00,,,0.00,Wunderground v.1.15,2013-03-04 13:50:00,
2013-03-04 08:55:00,29.4,19.8,29.70,West,275,8.0,13.0,67,0.00,,,0.00,Wunderground v.1.15,2013-03-04 13:55:00,
2013-03-04 09:00:00,29.6,20.0,29.70,SW,224,8.0,8.0,67,0.00,,,0.00,Wunderground v.1.15,2013-03-04 14:00:00,
2013-03-04 09:05:00,29.6,20.0,29.70,West,261,7.0,8.0,67,0.00,,,0.00,Wunderground v.1.15,2013-03-04 14:05:00,
2013-03-04 09:15:00,29.6,19.6,29.70,NW,324,8.0,17.0,66,0.00,,,0.00,Wunderground v.1.15,2013-03-04 14:15:00,
2013-03-04 09:25:00,29.7,19.7,29.69,NW,325,8.0,11.0,66,0.00,,,0.00,Wunderground v.1.15,2013-03-04 14:25:00,
2013-03-04 09:30:00,29.8,19.8,29.69,West,275,7.0,10.0,66,0.00,,,0.00,Wunderground v.1.15,2013-03-04 14:30:00,
2013-03-04 09:40:00,29.9,19.6,29.69,WSW,257,7.0,9.0,65,0.00,,,0.00,Wunderground v.1.15,2013-03-04 14:40:00,
2013-03-04 09:45:00,29.9,19.9,29.69,West,261,9.0,12.0,66,0.00,,,0.00,Wunderground v.1.15,2013-03-04 14:45:00,
2013-03-04 09:55:00,29.7,19.7,29.69,West,279,9.0,9.0,66,0.00,,,0.00,Wunderground v.1.15,2013-03-04 14:55:00,
2013-03-04 10:00:00,29.9,19.9,29.69,NW,321,9.0,9.0,66,0.00,,,0.00,Wunderground v.1.15,2013-03-04 15:00:00,
2013-03-04 10:05:00,30.2,19.8,29.69,WNW,298,8.0,9.0,65,0.00,,,0.00,Wunderground v.1.15,2013-03-04 15:05:00,
2013-03-04 10:15:00,30.7,19.6,29.69,West,275,9.0,9.0,63,0.00,,,0.00,Wunderground v.1.15,2013-03-04 15:15:00,
2013-03-04 10:25:00,31.2,20.1,29.69,West,281,9.0,9.0,63,0.00,,,0.00,Wunderground v.1.15,2013-03-04 15:25:00,
2013-03-04 10:35:00,31.4,20.2,29.68,NW,324,10.0,10.0,63,0.00,,,0.00,Wunderground v.1.15,2013-03-04 15:35:00,
2013-03-04 10:40:00,31.7,20.5,29.68,NW,309,9.0,9.0,63,0.00,,,0.00,Wunderground v.1.15,2013-03-04 15:40:00,
2013-03-04 10:45:00,31.9,20.7,29.68,West,263,8.0,9.0,63,0.00,,,0.00,Wunderground v.1.15,2013-03-04 15:45:00,
2013-03-04 10:50:00,32.0,20.4,29.68,NNW,332,7.0,7.0,62,0.00,,,0.00,Wunderground v.1.15,2013-03-04 15:50:00,
2013-03-04 10:55:00,32.1,20.5,29.68,NW,306,7.0,7.0,62,0.00,,,0.00,Wunderground v.1.15,2013-03-04 15:55:00,
2013-03-04 11:00:00,32.1,20.5,29.68,North,9,7.0,12.0,62,0.00,,,0.00,Wunderground v.1.15,2013-03-04 16:00:00,
2013-03-04 11:10:00,32.1,20.9,29.68,NNW,344,9.0,9.0,63,0.00,,,0.00,Wunderground v.1.15,2013-03-04 16:10:00,
2013-03-04 11:15:00,32.0,20.8,29.68,NW,312,9.0,13.0,63,0.00,,,0.00,Wunderground v.1.15,2013-03-04 16:15:00,
2013-03-04 11:25:00,31.8,21.0,29.68,NW,307,10.0,10.0,64,0.00,,,0.00,Wunderground v.1.15,2013-03-04 16:25:00,
2013-03-04 11:30:00,31.9,20.7,29.68,NW,317,9.0,15.0,63,0.00,,,0.00,Wunderground v.1.15,2013-03-04 16:30:00,
2013-03-04 11:35:00,32.1,20.5,29.68,SW,227,9.0,15.0,62,0.00,,,0.00,Wunderground v.1.15,2013-03-04 16:35:00,
2013-03-04 11:40:00,32.6,21.4,29.68,WNW,288,8.0,8.0,63,0.00,,,0.00,Wunderground v.1.15,2013-03-04 16:40:00,
2013-03-04 11:50:00,33.1,21.1,29.67,NW,322,7.0,11.0,61,0.00,,,0.00,Wunderground v.1.15,2013-03-04 16:50:00,
2013-03-04 11:55:00,33.2,20.8,29.67,North,5,9.0,11.0,60,0.00,,,0.00,Wunderground v.1.15,2013-03-04 16:55:00,
2013-03-04 12:00:00,33.2,20.8,29.67,NW,319,9.0,9.0,60,0.00,,,0.00,Wunderground v.1.15,2013-03-04 17:00:00,
2013-03-04 12:05:00,33.7,21.3,29.67,NNW,341,8.0,10.0,60,0.00,,,0.00,Wunderground v.1.15,2013-03-04 17:05:00,
2013-03-04 12:10:00,33.5,20.7,29.67,NNW,333,8.0,8.0,59,0.00,,,0.00,Wunderground v.1.15,2013-03-04 17:10:00,
2013-03-04 12:15:00,33.7,21.3,29.67,NW,314,9.0,9.0,60,0.00,,,0.00,Wunderground v.1.15,2013-03-04 17:15:00,
2013-03-04 12:20:00,33.5,20.7,29.67,NNE,19,9.0,9.0,59,0.00,,,0.00,Wunderground v.1.15,2013-03-04 17:20:00,
2013-03-04 12:30:00,33.5,21.1,29.67,WNW,298,6.0,12.0,60,0.00,,,0.00,Wunderground v.1.15,2013-03-04 17:30:00,
2013-03-04 12:35:00,33.2,21.2,29.67,West,281,7.0,12.0,61,0.00,,,0.00,Wunderground v.1.15,2013-03-04 17:35:00,
2013-03-04 12:45:00,33.0,21.0,29.68,NW,309,7.0,13.0,61,0.00,,,0.00,Wunderground v.1.15,2013-03-04 17:45:00,
2013-03-04 12:55:00,32.8,20.8,29.68,NW,307,8.0,11.0,61,0.00,,,0.00,Wunderground v.1.15,2013-03-04 17:55:00,
2013-03-04 13:00:00,32.7,21.1,29.68,North,355,9.0,11.0,62,0.00,,,0.00,Wunderground v.1.15,2013-03-04 18:00:00,
2013-03-04 13:05:00,32.6,21.4,29.68,WNW,290,10.0,11.0,63,0.00,,,0.00,Wunderground v.1.15,2013-03-04 18:05:00,
2013-03-04 13:15:00,32.7,21.9,29.68,NW,325,8.0,9.0,64,0.00,,,0.00,Wunderground v.1.15,2013-03-04 18:15:00,
2013-03-04 13:20:00,32.8,22.0,29.68,NNE,22,7.0,7.0,64,0.00,,,0.00,Wunderground v.1.15,2013-03-04 18:20:00,
2013-03-04 13:25:00,32.5,22.0,29.68,West,274,7.0,10.0,65,0.00,,,0.00,Wunderground v.1.15,2013-03-04 18:25:00,
2013-03-04 13:30:00,32.6,22.8,29.68,NW,305,7.0,7.0,67,0.00,,,0.00,Wunderground v.1.15,2013-03-04 18:30:00,
2013-03-04 13:35:00,32.1,22.0,29.68,NW,309,7.0,17.0,66,0.00,,,0.00,Wunderground v.1.15,2013-03-04 18:35:00,
2013-03-04 13:40:00,31.9,22.5,29.68,NW,311,8.0,8.0,68,0.00,,,0.00,Wunderground v.1.15,2013-03-04 18:40:00,
2013-03-04 13:45:00,31.7,22.7,29.68,NNW,333,8.0,13.0,69,0.00,,,0.00,Wunderground v.1.15,2013-03-04 18:45:00,
2013-03-04 13:50:00,31.8,22.4,29.69,West,278,8.0,8.0,68,0.00,,,0.00,Wunderground v.1.15,2013-03-04 18:50:00,
2013-03-04 13:55:00,31.5,22.1,29.69,West,275,8.0,8.0,68,0.00,,,0.00,Wunderground v.1.15,2013-03-04 18:55:00,
2013-03-04 14:00:00,31.4,22.4,29.69,West,281,8.0,8.0,69,0.00,,,0.00,Wunderground v.1.15,2013-03-04 19:00:00,
2013-03-04 14:10:00,31.6,23.6,29.69,NW,325,5.0,9.0,72,0.00,,,0.00,Wunderground v.1.15,2013-03-04 19:10:00,
2013-03-04 14:15:00,31.0,24.0,29.70,North,355,6.0,9.0,75,0.00,,,0.00,Wunderground v.1.15,2013-03-04 19:15:00,
2013-03-04 14:20:00,30.7,24.3,29.70,NE,34,7.0,7.0,77,0.00,,,0.00,Wunderground v.1.15,2013-03-04 19:20:00,
2013-03-04 14:25:00,30.6,23.9,29.70,NNW,330,6.0,7.0,76,0.00,,,0.00,Wunderground v.1.15,2013-03-04 19:25:00,
2013-03-04 14:30:00,30.5,23.5,29.70,West,275,6.0,10.0,75,0.00,,,0.00,Wunderground v.1.15,2013-03-04 19:30:00,
2013-03-04 14:35:00,30.4,23.1,29.70,NNW,330,7.0,10.0,74,0.00,,,0.00,Wunderground v.1.15,2013-03-04 19:35:00,
2013-03-04 14:40:00,30.5,22.5,29.70,NE,37,8.0,8.0,72,0.00,,,0.00,Wunderground v.1.15,2013-03-04 19:40:00,
2013-03-04 14:45:00,30.7,22.1,29.70,NW,322,9.0,9.0,70,0.00,,,0.00,Wunderground v.1.15,2013-03-04 19:45:00,
2013-03-04 14:50:00,30.9,21.9,29.70,West,271,7.0,7.0,69,0.00,,,0.00,Wunderground v.1.15,2013-03-04 19:50:00,
2013-03-04 14:55:00,31.0,21.3,29.70,WNW,303,6.0,7.0,67,0.00,,,0.00,Wunderground v.1.15,2013-03-04 19:55:00,
2013-03-04 15:00:00,31.0,21.7,29.70,NW,313,6.0,6.0,68,0.00,,,0.00,Wunderground v.1.15,2013-03-04 20:00:00,
2013-03-04 15:05:00,30.9,21.2,29.70,WNW,294,7.0,10.0,67,0.00,,,0.00,Wunderground v.1.15,2013-03-04 20:05:00,
2013-03-04 15:10:00,30.8,21.1,29.70,NNE,17,7.0,7.0,67,0.00,,,0.00,Wunderground v.1.15,2013-03-04 20:10:00,
2013-03-04 15:15:00,30.8,21.1,29.71,WNW,298,7.0,10.0,67,0.00,,,0.00,Wunderground v.1.15,2013-03-04 20:15:00,
2013-03-04 15:20:00,30.8,21.5,29.71,NNW,328,7.0,7.0,68,0.00,,,0.00,Wunderground v.1.15,2013-03-04 20:20:00,
2013-03-04 15:25:00,30.7,21.0,29.71,WNW,303,7.0,7.0,67,0.00,,,0.00,Wunderground v.1.15,2013-03-04 20:25:00,
2013-03-04 15:30:00,30.7,21.4,29.71,WNW,288,6.0,10.0,68,0.00,,,0.00,Wunderground v.1.15,2013-03-04 20:30:00,
2013-03-04 15:35:00,30.6,21.3,29.71,WNW,294,7.0,10.0,68,0.00,,,0.00,Wunderground v.1.15,2013-03-04 20:35:00,
2013-03-04 15:40:00,30.6,20.9,29.71,West,264,6.0,6.0,67,0.00,,,0.00,Wunderground v.1.15,2013-03-04 20:40:00,
2013-03-04 15:45:00,30.6,20.9,29.71,NNW,328,5.0,6.0,67,0.00,,,0.00,Wunderground v.1.15,2013-03-04 20:45:00,
2013-03-04 15:55:00,30.2,20.6,29.71,WNW,296,6.0,10.0,67,0.00,,,0.00,Wunderground v.1.15,2013-03-04 20:55:00,
2013-03-04 16:00:00,30.1,21.2,29.71,West,269,8.0,9.0,69,0.00,,,0.00,Wunderground v.1.15,2013-03-04 21:00:00,
2013-03-04 16:05:00,29.8,20.9,29.72,West,275,8.0,9.0,69,0.00,,,0.00,Wunderground v.1.15,2013-03-04 21:05:00,
2013-03-04 16:10:00,29.7,20.8,29.72,WNW,284,7.0,8.0,69,0.00,,,0.00,Wunderground v.1.15,2013-03-04 21:10:00,
2013-03-04 16:15:00,29.5,21.6,29.72,NW,312,6.0,8.0,72,0.00,,,0.00,Wunderground v.1.15,2013-03-04 21:15:00,
2013-03-04 16:20:00,29.4,22.1,29.72,NW,317,5.0,5.0,74,0.00,,,0.00,Wunderground v.1.15,2013-03-04 21:20:00,
2013-03-04 16:25:00,29.2,21.6,29.72,NNW,347,5.0,5.0,73,0.00,,,0.00,Wunderground v.1.15,2013-03-04 21:25:00,
2013-03-04 16:30:00,29.1,21.5,29.72,WNW,303,6.0,6.0,73,0.00,,,0.00,Wunderground v.1.15,2013-03-04 21:30:00,
2013-03-04 16:35:00,29.1,21.2,29.73,WNW,295,6.0,11.0,72,0.00,,,0.00,Wunderground v.1.15,2013-03-04 21:35:00,
2013-03-04 16:40:00,29.2,21.3,29.73,WNW,294,6.0,11.0,72,0.00,,,0.00,Wunderground v.1.15,2013-03-04 21:40:00,
2013-03-04 16:45:00,29.1,20.9,29.73,WSW,253,6.0,11.0,71,0.00,,,0.00,Wunderground v.1.15,2013-03-04 21:45:00,
2013-03-04 16:50:00,29.1,20.5,29.73,West,269,6.0,6.0,70,0.00,,,0.00,Wunderground v.1.15,2013-03-04 21:50:00,
2013-03-04 16:55:00,29.1,20.9,29.74,NW,313,5.0,10.0,71,0.00,,,0.00,Wunderground v.1.15,2013-03-04 21:55:00,
2013-03-04 17:00:00,29.1,20.5,29.74,WNW,298,5.0,5.0,70,0.00,,,0.00,Wunderground v.1.15,2013-03-04 22:00:00,
2013-03-04 17:10:00,29.1,20.2,29.74,WNW,302,5.0,5.0,69,0.00,,,0.00,Wunderground v.1.15,2013-03-04 22:10:00,
2013-03-04 17:15:00,29.1,20.5,29.75,West,265,5.0,5.0,70,0.00,,,0.00,Wunderground v.1.15,2013-03-04 22:15:00,
2013-03-04 17:20:00,29.1,20.5,29.75,West,281,5.0,5.0,70,0.00,,,0.00,Wunderground v.1.15,2013-03-04 22:20:00,
2013-03-04 17:25:00,29.1,20.2,29.74,NW,307,5.0,7.0,69,0.00,,,0.00,Wunderground v.1.15,2013-03-04 22:25:00,
2013-03-04 17:30:00,29.0,20.4,29.75,North,360,5.0,5.0,70,0.00,,,0.00,Wunderground v.1.15,2013-03-04 22:30:00,
2013-03-04 17:35:00,29.0,20.4,29.75,NW,309,5.0,5.0,70,0.00,,,0.00,Wunderground v.1.15,2013-03-04 22:35:00,
2013-03-04 17:40:00,29.0,20.4,29.75,NW,306,4.0,6.0,70,0.00,,,0.00,Wunderground v.1.15,2013-03-04 22:40:00,
2013-03-04 17:45:00,29.0,20.4,29.76,West,276,3.0,6.0,70,0.00,,,0.00,Wunderground v.1.15,2013-03-04 22:45:00,
2013-03-04 17:50:00,28.9,20.7,29.75,NNW,328,4.0,4.0,71,0.00,,,0.00,Wunderground v.1.15,2013-03-04 22:50:00,
2013-03-04 17:55:00,28.9,20.7,29.76,NW,314,4.0,12.0,71,0.00,,,0.00,Wunderground v.1.15,2013-03-04 22:55:00,
2013-03-04 18:00:00,29.0,20.8,29.76,WNW,298,6.0,10.0,71,0.00,,,0.00,Wunderground v.1.15,2013-03-04 23:00:00,
2013-03-04 18:05:00,29.0,20.8,29.76,North,355,7.0,10.0,71,0.00,,,0.00,Wunderground v.1.15,2013-03-04 23:05:00,
2013-03-04 18:15:00,28.9,20.7,29.77,NNW,327,5.0,6.0,71,0.00,,,0.00,Wunderground v.1.15,2013-03-04 23:15:00,
2013-03-04 18:20:00,28.8,20.6,29.78,WNW,298,6.0,6.0,71,0.00,,,0.00,Wunderground v.1.15,2013-03-04 23:20:00,
2013-03-04 18:25:00,28.8,20.6,29.78,West,278,4.0,6.0,71,0.00,,,0.00,Wunderground v.1.15,2013-03-04 23:25:00,
2013-03-04 18:30:00,28.7,20.8,29.78,West,279,4.0,5.0,72,0.00,,,0.00,Wunderground v.1.15,2013-03-04 23:30:00,
2013-03-04 18:35:00,28.8,20.9,29.79,NE,40,4.0,5.0,72,0.00,,,0.00,Wunderground v.1.15,2013-03-04 23:35:00,
2013-03-04 18:40:00,28.9,21.0,29.79,NNE,15,5.0,6.0,72,0.00,,,0.00,Wunderground v.1.15,2013-03-04 23:40:00,
2013-03-04 18:45:00,28.9,21.0,29.78,WSW,253,5.0,6.0,72,0.00,,,0.00,Wunderground v.1.15,2013-03-04 23:45:00,
2013-03-04 18:50:00,28.6,21.0,29.78,WNW,292,5.0,5.0,73,0.00,,,0.00,Wunderground v.1.15,2013-03-04 23:50:00,
2013-03-04 18:55:00,28.2,20.3,29.79,WNW,303,5.0,7.0,72,0.00,,,0.00,Wunderground v.1.15,2013-03-04 23:55:00,
2013-03-04 19:00:00,28.0,20.5,29.79,NW,324,5.0,9.0,73,0.00,,,0.00,Wunderground v.1.15,2013-03-05 00:00:00,
2013-03-04 19:05:00,27.8,20.3,29.79,NNW,341,6.0,9.0,73,0.00,,,0.00,Wunderground v.1.15,2013-03-05 00:05:00,
2013-03-04 19:10:00,27.8,20.6,29.80,West,271,5.0,5.0,74,0.00,,,0.00,Wunderground v.1.15,2013-03-05 00:10:00,
2013-03-04 19:15:00,27.8,20.6,29.80,NW,317,3.0,5.0,74,0.00,,,0.00,Wunderground v.1.15,2013-03-05 00:15:00,
2013-03-04 19:20:00,27.8,20.9,29.80,WNW,293,3.0,5.0,75,0.00,,,0.00,Wunderground v.1.15,2013-03-05 00:20:00,
2013-03-04 19:25:00,27.9,20.7,29.80,NNE,17,3.0,5.0,74,0.00,,,0.00,Wunderground v.1.15,2013-03-05 00:25:00,
2013-03-04 19:30:00,28.0,21.1,29.80,NW,312,3.0,3.0,75,0.00,,,0.00,Wunderground v.1.15,2013-03-05 00:30:00,
2013-03-04 19:35:00,28.0,21.1,29.81,WSW,254,2.0,3.0,75,0.00,,,0.00,Wunderground v.1.15,2013-03-05 00:35:00,
2013-03-04 19:40:00,28.0,21.1,29.81,WNW,298,2.0,3.0,75,0.00,,,0.00,Wunderground v.1.15,2013-03-05 00:40:00,
2013-03-04 19:45:00,28.1,20.9,29.81,WSW,255,2.0,3.0,74,0.00,,,0.00,Wunderground v.1.15,2013-03-05 00:45:00,
2013-03-04 19:50:00,28.0,21.1,29.81,West,271,2.0,4.0,75,0.00,,,0.00,Wunderground v.1.15,2013-03-05 00:50:00,
2013-03-04 19:55:00,28.1,21.2,29.82,WNW,288,2.0,4.0,75,0.00,,,0.00,Wunderground v.1.15,2013-03-05 00:55:00,
2013-03-04 20:00:00,28.1,21.2,29.82,NW,308,3.0,5.0,75,0.00,,,0.00,Wunderground v.1.15,2013-03-05 01:00:00,
2013-03-04 20:10:00,28.4,21.5,29.82,North,355,5.0,5.0,75,0.00,,,0.00,Wunderground v.1.15,2013-03-05 01:10:00,
2013-03-04 20:15:00,28.4,21.5,29.82,NNE,27,4.0,5.0,75,0.00,,,0.00,Wunderground v.1.15,2013-03-05 01:15:00,
2013-03-04 20:20:00,28.5,21.9,29.82,NNE,30,4.0,7.0,76,0.00,,,0.00,Wunderground v.1.15,2013-03-05 01:20:00,
2013-03-04 20:25:00,28.7,21.8,29.83,North,5,5.0,7.0,75,0.00,,,0.00,Wunderground v.1.15,2013-03-05 01:25:00,
2013-03-04 20:30:00,28.8,21.9,29.82,NNE,22,7.0,9.0,75,0.00,,,0.00,Wunderground v.1.15,2013-03-05 01:30:00,
2013-03-04 20:35:00,28.7,21.8,29.83,NNE,24,7.0,9.0,75,0.00,,,0.00,Wunderground v.1.15,2013-03-05 01:35:00,
2013-03-04 20:40:00,28.8,21.9,29.83,NNE,15,6.0,6.0,75,0.00,,,0.00,Wunderground v.1.15,2013-03-05 01:40:00,
2013-03-04 20:45:00,28.8,21.9,29.84,North,355,6.0,6.0,75,0.00,,,0.00,Wunderground v.1.15,2013-03-05 01:45:00,
2013-03-04 20:50:00,28.8,21.9,29.84,NNE,18,5.0,5.0,75,0.00,,,0.00,Wunderground v.1.15,2013-03-05 01:50:00,
2013-03-04 20:55:00,28.8,21.9,29.84,NNE,24,5.0,5.0,75,0.00,,,0.00,Wunderground v.1.15,2013-03-05 01:55:00,
2013-03-04 21:00:00,28.8,21.9,29.83,NNW,346,5.0,5.0,75,0.00,,,0.00,Wunderground v.1.15,2013-03-05 02:00:00,
2013-03-04 21:05:00,28.8,21.9,29.84,North,360,4.0,5.0,75,0.00,,,0.00,Wunderground v.1.15,2013-03-05 02:05:00,
2013-03-04 21:10:00,28.8,21.9,29.84,North,360,5.0,5.0,75,0.00,,,0.00,Wunderground v.1.15,2013-03-05 02:10:00,
2013-03-04 21:15:00,28.8,21.9,29.84,North,5,4.0,5.0,75,0.00,,,0.00,Wunderground v.1.15,2013-03-05 02:15:00,
2013-03-04 21:20:00,28.8,21.9,29.84,NW,326,3.0,3.0,75,0.00,,,0.00,Wunderground v.1.15,2013-03-05 02:20:00,
2013-03-04 21:25:00,28.9,22.0,29.84,WNW,300,3.0,3.0,75,0.00,,,0.00,Wunderground v.1.15,2013-03-05 02:25:00,
2013-03-04 21:35:00,28.5,21.6,29.85,West,263,3.0,4.0,75,0.00,,,0.00,Wunderground v.1.15,2013-03-05 02:35:00,
2013-03-04 21:40:00,28.2,21.0,29.85,West,269,3.0,3.0,74,0.00,,,0.00,Wunderground v.1.15,2013-03-05 02:40:00,
2013-03-04 21:45:00,28.1,21.2,29.85,WNW,299,3.0,3.0,75,0.00,,,0.00,Wunderground v.1.15,2013-03-05 02:45:00,
2013-03-04 21:50:00,28.1,21.2,29.85,WNW,294,2.0,2.0,75,0.00,,,0.00,Wunderground v.1.15,2013-03-05 02:50:00,
2013-03-04 22:00:00,28.1,21.2,29.85,North,355,2.0,2.0,75,0.00,,,0.00,Wunderground v.1.15,2013-03-05 03:00:00,
2013-03-04 22:05:00,28.1,21.5,29.85,NW,311,2.0,2.0,76,0.00,,,0.00,Wunderground v.1.15,2013-03-05 03:05:00,
2013-03-04 22:10:00,28.1,21.2,29.85,NNW,329,2.0,4.0,75,0.00,,,0.00,Wunderground v.1.15,2013-03-05 03:10:00,
2013-03-04 22:15:00,28.0,21.4,29.86,NE,50,2.0,4.0,76,0.00,,,0.00,Wunderground v.1.15,2013-03-05 03:15:00,
2013-03-04 22:20:00,28.0,21.4,29.86,NE,36,2.0,2.0,76,0.00,,,0.00,Wunderground v.1.15,2013-03-05 03:20:00,
2013-03-04 22:25:00,28.1,21.5,29.86,North,5,2.0,2.0,76,0.00,,,0.00,Wunderground v.1.15,2013-03-05 03:25:00,
2013-03-04 22:30:00,28.1,21.5,29.86,NNW,339,1.0,1.0,76,0.00,,,0.00,Wunderground v.1.15,2013-03-05 03:30:00,
2013-03-04 22:35:00,28.1,21.5,29.86,NW,317,1.0,2.0,76,0.00,,,0.00,Wunderground v.1.15,2013-03-05 03:35:00,
2013-03-04 22:40:00,28.1,21.5,29.86,North,351,1.0,1.0,76,0.00,,,0.00,Wunderground v.1.15,2013-03-05 03:40:00,
2013-03-04 22:45:00,28.1,21.5,29.86,North,5,1.0,1.0,76,0.00,,,0.00,Wunderground v.1.15,2013-03-05 03:45:00,
2013-03-04 22:50:00,28.1,21.5,29.86,NW,323,1.0,1.0,76,0.00,,,0.00,Wunderground v.1.15,2013-03-05 03:50:00,
2013-03-04 22:55:00,28.0,21.4,29.86,NW,326,1.0,2.0,76,0.00,,,0.00,Wunderground v.1.15,2013-03-05 03:55:00,
2013-03-04 23:00:00,27.8,21.2,29.87,WSW,244,1.0,1.0,76,0.00,,,0.00,Wunderground v.1.15,2013-03-05 04:00:00,
2013-03-04 23:10:00,27.9,21.6,29.87,NNW,344,2.0,2.0,77,0.00,,,0.00,Wunderground v.1.15,2013-03-05 04:10:00,
2013-03-04 23:15:00,27.9,21.6,29.87,SSW,205,1.0,2.0,77,0.00,,,0.00,Wunderground v.1.15,2013-03-05 04:15:00,
2013-03-04 23:20:00,28.0,21.7,29.87,NNW,341,1.0,1.0,77,0.00,,,0.00,Wunderground v.1.15,2013-03-05 04:20:00,
2013-03-04 23:25:00,28.1,21.5,29.87,NNW,340,1.0,3.0,76,0.00,,,0.00,Wunderground v.1.15,2013-03-05 04:25:00,
2013-03-04 23:30:00,28.2,21.9,29.87,NE,36,1.0,1.0,77,0.00,,,0.00,Wunderground v.1.15,2013-03-05 04:30:00,
2013-03-04 23:35:00,28.2,21.9,29.87,SSW,202,1.0,1.0,77,0.00,,,0.00,Wunderground v.1.15,2013-03-05 04:35:00,
2013-03-04 23:40:00,28.3,22.0,29.88,ENE,73,1.0,2.0,77,0.00,,,0.00,Wunderground v.1.15,2013-03-05 04:40:00,
2013-03-04 23:45:00,28.4,21.8,29.88,East,97,1.0,2.0,76,0.00,,,0.00,Wunderground v.1.15,2013-03-05 04:45:00,
2013-03-04 23:50:00,28.4,22.1,29.88,East,97,1.0,1.0,77,0.00,,,0.00,Wunderground v.1.15,2013-03-05 04:50:00,
2013-03-04 23:55:00,28.4,21.8,29.88,SSW,209,0.0,1.0,76,0.00,,,0.00,Wunderground v.1.15,2013-03-05 04:55:00,